www.pogodaiklimat.ru
Время
и дата
07:54 04.12
08:54 04.12
09:41 04.12
09:54 04.12
10:20 04.12
10:54 04.12
11:14 04.12
11:54 04.12
12:54 04.12
13:54 04.12
14:54 04.12
15:54 04.12
16:54 04.12
17:54 04.12
18:54 04.12
19:54 04.12
20:54 04.12
21:54 04.12
22:54 04.12
23:54 04.12
00:54 05.12
01:54 05.12
02:54 05.12
03:54 05.12
04:54 05.12
05:54 05.12
06:54 05.12
07:54 05.12
08:54 05.12
09:54 05.12
10:54 05.12
11:54 05.12
12:54 05.12
13:09 05.12
13:54 05.12
14:54 05.12
15:54 05.12
16:54 05.12
17:54 05.12
18:54 05.12
19:54 05.12
20:54 05.12
21:54 05.12
22:54 05.12
23:54 05.12
00:54 06.12
01:54 06.12
02:54 06.12
Ветер
(напр.,м/с)
Видим. Явления Облачность Т
(С)
Тd
(С)
f
(%)
Тe
(С)
Тes
(С)
Комфортность P
(гПа)
Po
(гПа)
Тmin
(С)
Tmax
(С)
R
(мм)
R24
(мм)
S
(см)
Ю 2 16 км 8/8 780 м +2.2 -1.7 75 -3 -3 1017.1 990.4
ЮЗ 2 16 км 8/8 540 м +3.9 0.0 76 -1 -1 1016.6 990.0
З 3 16 км 8/8 390 м +5.0 +1.1 76 0 0 989.7
ЮЗ 2 16 км 8/8 390 м +5.6 +1.7 76 +1 +1 1016.4 990.0
З 4
{5}
16 км 8/8 510 м +5.6 +1.1 73 0 0 990.4
З 4
{5}
16 км 8/8 510 м +3.9 0.0 76 -3 -3 1017.5 991.0
З 4
{6}
16 км 8/8 510 м
[Ac]
+4.4 -0.6 70 -2 -2 990.7
З 4
{6}
16 км 8/8 810 м
[Ac]
+5.0 -1.7 62 -1 -1 1016.8 990.4
З 3
{6}
16 км 8/8 1200 м
[Ac]
+5.6 -3.3 53 +1 +2 1016.7 990.0 +1.7 +6.1
З 4
{6}
16 км 8/8 1260 м
[Ac]
+5.0 -3.3 55 -1 -1 1017.3 990.7
З 4
{7}
16 км 8/8 1230 м
[Ac]
+5.0 -4.4 51 -1 -1 1017.5 991.0
З 4
{7}
16 км 8/8 1320 м
[Ac]
+4.4 -6.1 46 -2 -2 1019.2 992.7
З 4
{6}
16 км 8/8 1650 м
[Ci]
+3.9 -6.1 48 -2 -2 1020.4 993.7
З 3 16 км 5/5 1650 м
[Ci]
+3.3 -5.6 52 -2 -2 1021.0 994.3
З 3 16 км 2/2 1500 м
[Ci]
+2.2 -6.1 54 -4 -4 1021.6 995.0 +2.2 +6.1
З 3 16 км 2/0 7500 м
[Ci]
+2.2 -6.1 54 -4 -4 1022.1 995.3
З 2 16 км ясно +1.7 -6.1 56 -3 -3 1022.2 995.3
З 2 16 км 8/0 6300 м
[Ci]
+1.7 -6.1 56 -3 -3 1023.0 996.3
З 2 16 км 10/0 м
[Ac]
+1.7 -6.1 56 -3 -3 1022.7 996.0
З 1 16 км 8/0 4500 м
[Ac]
+1.1 -5.6 61 -3 -3 1023.6 997.0
З 2 16 км 10/2 1200 м
[Ac]
+1.7 -5.6 58 -3 -3 1023.8 997.3 +1.1 +2.2
З 1 16 км 10/2 1200 м
[Ac]
+1.7 -5.0 61 -2 -2 1024.4 997.6
З 2 16 км 10/2 1140 м
[Ac]
+1.7 -5.6 58 -3 -3 1025.0 998.3
З 1 16 км 8/2 1200 м
[Ac]
+1.1 -5.6 61 -3 -3 1025.2 998.3
З 1 16 км 8/2 1200 м
[Ac Ci]
+0.6 -5.6 63 -4 -4 1025.9 999.0
З 1 16 км 10/2 1050 м
[Ac]
0.0 -5.6 66 -3 -3 1026.3 999.3
ЮЗ 1 16 км 8/0 3300 м
[Ac Ci]
0.0 -5.6 66 -3 -3 1026.6 999.6 +2.2
Ю 1 16 км 8/2 1200 м
[Ac Ci]
-1.1 -5.0 75 -5 -5 1027.0 999.9
Ю 1 16 км 10/2 1200 м
[Ac]
+0.6 -3.9 72 -3 -3 1027.3 1000.3
ЮВ 1 16 км 8/2 1200 м
[Ac]
+1.7 -4.4 64 -1 -1 1027.5 1000.6
В 1 16 км 10/2 1200 м
[Ac]
+2.2 -4.4 62 -1 0 1027.1 1000.3
В 2 16 км 10/0 2100 м
[Ac]
+2.2 -5.0 59 -2 -2 1025.4 998.6
В 2 16 км 10/8 1380 м
[Ac]
+2.8 -5.6 54 -2 -2 1024.5 997.6 -1.1 +2.8
В 2 10 км слабый снег 10/8 1080 м
[Ac]
+2.2 -5.0 59 -3 -3 997.6
В 3 14 км 10/8 1200 м
[Ac]
+1.7 -3.9 66 -4 -4 1023.2 996.3
В 3 16 км 10/0 3000 м
[Ac]
+2.2 -3.3 67 -3 -3 1021.2 994.7
В 3 16 км 10/0 2400 м
[Ac]
+2.2 -3.3 67 -3 -3 1019.8 993.0
В 3 16 км 10/2 1500 м
[Ac]
+3.3 -3.9 59 -2 -2 1017.5 991.0
В 3 16 км 10/10 1440 м +3.3 -3.9 59 -2 -2 1015.2 988.7
В 2 16 км 10/10 1380 м +4.4 -3.3 57 0 0 1012.9 986.4 +1.7 +4.4
С 1 16 км слабый дождь 10/10 1410 м +5.0 -2.8 57 +2 +2 1012.1 985.8
СВ 1 16 км слабый дождь 10/10 1350 м +3.3 -1.1 73 0 0 1010.4 984.1
СЗ 2 14 км слабый дождь 10/10 1440 м +3.9 +1.1 82 -1 -1 1010.2 983.8 0.8
В 1 10 км слабый дождь, дымка 10/10 1500 м +3.9 +2.2 89 +1 +1 1009.0 982.8
Ю 3 16 км слабый дождь 10/8 1440 м
[Ac]
+6.7 +3.3 79 +2 +2 1006.7 980.5
Ю 4
{8}
16 км слабый дождь 10/10 1080 м +9.4 +5.0 74 +5 +5 1005.7 979.8 +3.3 +9.4 4.8
Ю 5
{8}
16 км 10/10 1170 м +10.0 +5.0 71 +5 +5 1004.9 978.8
Ю 6
{8}
16 км слабый дождь 10/10 1080 м +11.1 +5.6 69 +7 +7 1004.0 978.2
Местоположение метеостанции Greater Buffalo International Airport: широта 42.9400 долгота -78.7360 высота над уровнем моря 216 м.
В архиве по умолчанию представлена погода в Баффало за последние 1-2 суток. Обновление информации о фактической погоде в базе происходит ежечасно! Архивные данные за месяц целиком и за предыдущие месяцы Вы можете получить, выбрав интересующий диапазон дат из раскрывающегося списка и нажав кнопку "Ввод!".
Внимание! Архив погоды МЕТАР в базе сайта по станциям, не включенным в климатический монитор, хранится не более 60 дней. Нет смысла пытаться выбрать более раннюю дату.
*Определитесь, кто Вы:
Внимание! Время в таблицах - местное (без учета летнего времени). Для получения всемирного времени необходимо вычесть поправку, которая равна -5 ч.
Смотрите также архив погоды в соседних городах и на ближайших метеорологических станциях:
Партнеры нашего сайта:      
Пояснения к столбцам:
  • Ветер - указаны скорость ветра в м/с - средняя за 10 мин, порывы в срок и между сроками (в фигурных скобках) и направление, откуда дует ветер: С - северный,
  • СВ - северо-восточный, В - восточный, ЮВ - юго-восточный, Ю - южный, ЮЗ - юго-западный, З - западный, СЗ - северо-западный.
  • Видимость - горизонтальная дальность видимости в метрах или километрах. При видимости от 1 до 10 км при отсутствии осадков обычно наблюдается дымка, при ухудшении видимости до 1 км и менее - туман. В сухую погоду видимость может ухудшаться дымом, пылью или мглою.
  • Явления - указаны атмосферные явления, наблюдавшиеся в срок или в последний час перед сроком; фигурными скобками обозначены явления, наблюдавшиеся между сроками (за 1-3 часа до срока); квадратными скобками обозначены град или гололедные отложения с указанием их диаметра в мм.
  • Облачность - указаны через наклонную черту общая и нижняя облачность в баллах и высота нижней границы облаков в метрах; квадратными скобками обозначены формы облаков: Ci - перистые, Cs - перисто-слоистые, Cc - перисто-кучевые, Ac - высококучевые, As - высокослоистые, Sc - слоисто-кучевые, Ns - слоисто-дождевые, Cu - кучевые, Cb - кучево-дождевые. Подробнее классификацию облаков см. в Атласе облаков (PDF).
  • T - Температура воздуха - температура, измеренная на высоте 2 м над землей.
  • Td - Температура точки росы - температура, при понижении до которой содержащийся в воздухе водяной пар достигнет насыщения.
  • f - Относительная влажность воздуха - влажноcть воздуха, измеренная на высоте 2 м над землей.
  • Te - Эффективная температура - температура, которую ощущает одетый по сезону человек в тени. Характеристика душности погоды. При расчете учитывается влияние влажности воздуха и скорости ветра на теплоощущения человека.
  • Tes - Эффективная температура на солнце - температура, которую ощущает человек, с поправкой на солнечный нагрев. Характеристика знойности погоды. Зависит от высоты солнца над горизонтом, облачности и скорости ветра. Ночью, в пасмурную погоду, а также при ветре 12 м/с и более поправка равна нулю.
  • P - Атмосферное давление - приведенное к уровню моря атмосферное давление.
  • Po - Атмосферное давление - измеренное на уровне метеостанции атмосферное давление.
  • Tmin - Минимальная температура - минимум температуры воздуха на высоте 2 м над землей.
  • Tmax - Максимальная температура - максимум температуры воздуха на высоте 2 м над землей.
  • R - Количество осадков - Количество выпавших осадков за период времени, мм. При наведении курсора мыши на число - период времени, за который выпало указанное количество осадков.
  • R24 - Количество осадков - Количество выпавших осадков за 24 часа, мм.
  • S - Снежный покров - Высота снежного покрова, см. При наведении курсора мыши на число - состояние снежного покрова и степень покрытия местности в баллах.